User: anonymous   Login
Location: Unspecified
(0.0000°N, 0.0000°E)
Time: 07:58:59
(UTC+02:00)
Language:

Cosmos 2279 Rocket - Orbit

View from above orbital plane
View from above orbital plane
View from above satellite
View from above satellite

Ground track
Ground track

The orbit data is extracted from the following two-line orbital elements,

1 23093U 94024B   16148.80261571  .00000052  00000-0  37206-4 0  9995
2 23093  82.9490  41.1174 0010419  12.2812 347.8597 13.77696181578361
Epoch (UTC): 27 May 2016 19:15:45
Eccentricity: 0.0010419
inclination: 82.9490°
perigee height: 964 km
apogee height: 980 km
right ascension of ascending node: 41.1174°
argument of perigee: 12.2812°
revolutions per day: 13.77696181
mean anomaly at epoch: 347.8597°
orbit number at epoch: 57836

The dashed part of the orbit path shows where the satellite is in the earth's shadow,  

DLR